map of CAB home
Great Circle Mapper logo
CAB - Airport
Location
City:  Cabinda, Angola
ICAO:FNCA
IATA:CAB

Details
Type:Airport (Aerodrome, Airfield)
Use:Public/Civil
Latitude:535'49"S (-5.596991)
Longitude:1211'18"E (12.188353)
Datum:WGS 1984
Elevation:66 ft (20 m)
Variation:2.92W (WMM2015 magnetic declination)
0.16 annual change
Runways:1
Longest:8202 × 98 ft (2500 × 30 m), paved

Time
Time Zone:UTC+1
Local Time:

Weather
METAR:FNCA 281400Z 25006KT 9999 FEW020 28/22 Q1013
TAF:FNCA 281100Z 2812/2824 21005KT 9999 FEW020 BKN025
BECMG 2812/2814 26010KT FEW020
TEMPO 2814/2820 26010KT CAVOK
BECMG 2818/2820 15005KT SCT020

Related Locations
Nearby:
Farthest:PLPA: 12055 mi / 19400 km
Palmyra Island Atoll [Palmyra Airport (Cooper)], UM

Find:

   beyond  
but within

Other Information
Maps:
NOTAMs:
Links:
Sources:

  
flag of Angola   

Sectional Chart

Flight Planning
at skyvector.com

Satellite Image

Google Maps Satellite view

 

Copyright © 2004-2016 Karl L. Swartz. All rights reserved.
The Great Circle Mapper name and logo are trademarks of the Great Circle Mapper.
All other trademarks mentioned herein belong to their respective owners.
Please see credits for attibutions and further copyright information.

  Follow gcmap on Facebook Follow gcmap on Twitter Follow gcmap on Google+ GCmap on LinkedIn

hCard Microformat

Geo Microformat